User: anonymous   Login
Location: Unspecified
(0.0000°N, 0.0000°E)
Time: 12:54:09
(UTC+01:00)
Language:

Cosmos 2219 - Orbit

View from above orbital plane
View from above orbital plane
View from above satellite
View from above satellite

Ground track
Ground track

The orbit data is extracted from the following two-line orbital elements,

1 22219U 92076A   16342.15082640 -.00000297  00000-0 -13244-3 0  9999
2 22219  71.0608 238.8498 0020257 315.8092  44.1411 14.13603229241076
Epoch (UTC): 07 December 2016 03:37:11
Eccentricity: 0.0020257
inclination: 71.0608°
perigee height: 832 km
apogee height: 862 km
right ascension of ascending node: 238.8498°
argument of perigee: 315.8092°
revolutions per day: 14.13603229
mean anomaly at epoch: 44.1411°
orbit number at epoch: 24107

The dashed part of the orbit path shows where the satellite is in the earth's shadow,  

DLR